Darstellungsparameter: Aktuell verwendete Einstellungen:
Skalierung der Graphiken ... ?
xyx+y,   Skalierungsfaktor:      Skalierung: Modus: x, Faktor: 1
Darstellungszeitraum ... ?
Vom - - bis: - -   Zeitraum: 28.11.2020 - 28.11.2020
Min/Max/Avg-Anzeige ... ?
Zeige MMA aktuell
Zeige MMA Monat
Zeige MMA alles
Zeige --A aktuell
Zeige --A Monat
Zeige --A alles
Keine MMA-Anzeige
MMA:
Minimum Maximum Average (ber die Originaldaten)
MMA-Basis: 14.04.2020 - 16.05.2020
Quicknavigation für Darstellung... ?
Tage:      1T, 2T, 3T, 5T -1T -2T -3T -5T +1T +2T +3T +5T
Wochen: 1W, 2W, 3W -1W -2W -3W +1W +2W +3W
Monate: 1M, 3M, 6M -1M -3M -6M +1M +3M +6M
Jahre:    1J, 3J, 5J, 10J -1J -3J -5J -10J +1J +3J +5J +10J
Nutze für die Darstellung ... ?
Originaldaten oder Mittelwerte auf ...
Stundenbasis Tagesbasis Wochenbasis
Monatsbasis Jahresbasis      Datenbasis: Original-Daten
Darstellen als:
Statistik (Auto) Statistik J:M      Darstellung:

Der gewünschte Datumsbereich war nicht gültig/verfügbar und wurde korrigiert....
Das angegebene Enddatum (15.05.2025 23:59:59) liegt in der Zukunft.
Das angegebene Startdatum (09.05.2025 00:00:00) liegt in der Zukunft.


Zur Graphik,    zurück zur Übersicht aller Sensoren.
 
Tabellarische Datenbersicht: ?
 
Sensor: Nr:Datum:Temp:Abs-Feuchte:Windchill:Wind:
Aussen-T/F 1 28-11-2020 01:00:00 3.6 C 5.76 g/m*3 3.6 C 3.2 km/h
2 28-11-2020 01:05:00 3.6 C 5.76 g/m*3 3.6 C 1.6 km/h
3 28-11-2020 01:10:00 3.6 C 5.76 g/m*3 3.6 C 0 km/h
4 28-11-2020 01:15:00 3.6 C 5.76 g/m*3 3.6 C 1.6 km/h
5 28-11-2020 01:20:00 3.6 C 5.76 g/m*3 3.6 C 0 km/h
6 28-11-2020 01:25:00 3.6 C 5.76 g/m*3 1.98 C 6.4 km/h
7 28-11-2020 01:30:00 3.6 C 5.76 g/m*3 1.98 C 6.4 km/h
8 28-11-2020 01:35:00 3.6 C 5.76 g/m*3 3.6 C 3.2 km/h
9 28-11-2020 01:40:00 3.6 C 5.76 g/m*3 3.6 C 0 km/h
10 28-11-2020 01:45:00 3.6 C 5.76 g/m*3 3.6 C 4.8 km/h
11 28-11-2020 01:50:00 3.6 C 5.76 g/m*3 3.6 C 3.2 km/h
12 28-11-2020 01:55:00 3.5 C 5.72 g/m*3 3.5 C 1.6 km/h
13 28-11-2020 02:00:00 3.5 C 5.72 g/m*3 3.5 C 3.2 km/h
14 28-11-2020 02:05:00 3.5 C 5.72 g/m*3 3.5 C 0 km/h
15 28-11-2020 02:10:00 3.5 C 5.72 g/m*3 3.5 C 3.2 km/h
16 28-11-2020 02:15:00 3.4 C 5.68 g/m*3 3.4 C 1.6 km/h
17 28-11-2020 02:20:00 3.4 C 5.68 g/m*3 3.4 C 0 km/h
18 28-11-2020 02:25:00 3.4 C 5.68 g/m*3 3.4 C 0 km/h
19 28-11-2020 02:30:00 3.4 C 5.74 g/m*3 3.4 C 1.6 km/h
20 28-11-2020 02:35:00 3.4 C 5.68 g/m*3 3.4 C 3.2 km/h
21 28-11-2020 02:40:00 3.4 C 5.68 g/m*3 3.4 C 1.6 km/h
22 28-11-2020 02:45:00 3.4 C 5.68 g/m*3 3.4 C 3.2 km/h
23 28-11-2020 02:50:00 3.4 C 5.68 g/m*3 3.4 C 1.6 km/h
24 28-11-2020 02:55:00 3.4 C 5.74 g/m*3 3.4 C 3.2 km/h
25 28-11-2020 03:00:00 3.4 C 5.74 g/m*3 3.4 C 0 km/h
Sensor: Nr:Datum:Temp:Abs-Feuchte:Windchill:Wind:
Aussen-T/F 26 28-11-2020 03:05:00 3.3 C 5.7 g/m*3 3.3 C 0 km/h
27 28-11-2020 03:10:00 3.3 C 5.7 g/m*3 3.3 C 0 km/h
28 28-11-2020 03:15:00 3.3 C 5.7 g/m*3 3.3 C 0 km/h
29 28-11-2020 03:20:00 3.3 C 5.7 g/m*3 3.3 C 0 km/h
30 28-11-2020 03:25:00 3.3 C 5.7 g/m*3 3.3 C 0 km/h
31 28-11-2020 03:30:00 3.2 C 5.66 g/m*3 3.2 C 0 km/h
32 28-11-2020 03:35:00 3.2 C 5.6 g/m*3 3.2 C 0 km/h
33 28-11-2020 03:40:00 3.2 C 5.66 g/m*3 3.2 C 0 km/h
34 28-11-2020 03:45:00 3.2 C 5.6 g/m*3 3.2 C 3.2 km/h
35 28-11-2020 03:50:00 3.1 C 5.57 g/m*3 3.1 C 3.2 km/h
36 28-11-2020 03:55:00 3.1 C 5.57 g/m*3 3.1 C 3.2 km/h
37 28-11-2020 04:00:00 3.1 C 5.63 g/m*3 3.1 C 3.2 km/h
38 28-11-2020 04:05:00 3.1 C 5.63 g/m*3 3.1 C 3.2 km/h
39 28-11-2020 04:10:00 3 C 5.59 g/m*3 3 C 4.8 km/h
40 28-11-2020 04:15:00 3 C 5.59 g/m*3 1.28 C 6.4 km/h
41 28-11-2020 04:20:00 2.9 C 5.55 g/m*3 2.9 C 4.8 km/h
42 28-11-2020 04:25:00 2.9 C 5.55 g/m*3 2.9 C 0 km/h
43 28-11-2020 04:30:00 2.9 C 5.55 g/m*3 2.9 C 1.6 km/h
44 28-11-2020 04:35:00 2.9 C 5.55 g/m*3 2.9 C 1.6 km/h
45 28-11-2020 04:40:00 2.9 C 5.55 g/m*3 2.9 C 0 km/h
46 28-11-2020 04:45:00 2.9 C 5.55 g/m*3 2.9 C 1.6 km/h
47 28-11-2020 04:50:00 2.9 C 5.55 g/m*3 2.9 C 0 km/h
48 28-11-2020 04:55:00 2.9 C 5.55 g/m*3 2.9 C 0 km/h
49 28-11-2020 05:00:00 2.9 C 5.55 g/m*3 2.9 C 1.6 km/h
50 28-11-2020 05:05:00 2.9 C 5.55 g/m*3 2.9 C 1.6 km/h
Sensor: Nr:Datum:Temp:Abs-Feuchte:Windchill:Wind:
Aussen-T/F 51 28-11-2020 05:10:00 2.9 C 5.55 g/m*3 2.9 C 0 km/h
52 28-11-2020 05:15:00 2.9 C 5.55 g/m*3 2.9 C 0 km/h
53 28-11-2020 05:20:00 2.9 C 5.55 g/m*3 2.9 C 0 km/h
54 28-11-2020 05:25:00 2.9 C 5.55 g/m*3 2.9 C 0 km/h
55 28-11-2020 05:30:00 2.9 C 5.55 g/m*3 2.9 C 1.6 km/h
56 28-11-2020 05:35:00 2.9 C 5.55 g/m*3 2.9 C 1.6 km/h
57 28-11-2020 05:40:00 2.9 C 5.55 g/m*3 2.9 C 1.6 km/h
58 28-11-2020 05:45:00 2.9 C 5.55 g/m*3 2.9 C 4.8 km/h
59 28-11-2020 05:50:00 2.8 C 5.51 g/m*3 2.8 C 0 km/h
60 28-11-2020 05:55:00 2.8 C 5.51 g/m*3 2.8 C 1.6 km/h
61 28-11-2020 06:00:00 2.8 C 5.51 g/m*3 2.8 C 0 km/h
62 28-11-2020 06:05:00 2.8 C 5.51 g/m*3 2.8 C 0 km/h

Legende:
   Min
   Max


Maximal/Minimal-Werte vom 14.04.2020 - 16.05.2020

Sensor Min Max Avg
Temp
(Aussen-T/F)
-0.1 °C
15-04-2020  06:55:00
26.2 °C
17-04-2020  18:05:00
11.98 °C

Die Daten stammen von einer Davis Vantage Pro 2 Wetter-Station und werden unter Linux mit der Software wview2wettercgi und aufbereitet. Alle Angaben erfolgen ohne Gewähr für ihre Vollständigkeit oder Richtigkeit.
Kontakt: Rainer Krienke krienke@uni-koblenz.de . Meine Webseiten an der Uni Koblenz oder privat.
Version: $Revision: 0.78 $